Stations météo

réclame
Mon MeteoGroup
Volkel, Pays-Bas (6375): Température de l'air & dewpoint: 19.02.2018 10:00:00 - 25.02.2018 10:00:00 (CET)Volkel, Pays-Bas (6375): Température de l'air 5cm: 19.02.2018 10:00:00 - 25.02.2018 10:00:00 (CET)Volkel, Pays-Bas (6375): Vitesse du vent & gusts: 19.02.2018 10:00:00 - 25.02.2018 10:00:00 (CET)Volkel, Pays-Bas (6375): Direction du vent: 19.02.2018 10:00:00 - 25.02.2018 10:00:00 (CET)Volkel, Pays-Bas (6375): reduced air pressure: 19.02.2018 10:00:00 - 25.02.2018 10:00:00 (CET)Volkel, Pays-Bas (6375): visibility: 19.02.2018 10:00:00 - 25.02.2018 10:00:00 (CET)Volkel, Pays-Bas (6375): Quantités de précipitations: 19.02.2018 10:00:00 - 25.02.2018 10:00:00 (CET)
Date & Time tt [°C] td [°C] tt 5cm [°C] ff [km/h] ff [knt] fx [km/h] fx [knt] dd ppp [hPa] vv [km] rr [mm]
25.02.2018 10:00:00 -2,4 -10,9 -1,6 26 14 43 23 ENE 1031,2 10 0,0
25.02.2018 09:00:00 -3,7 -11,2 -3,7 29 16 40 21 ENE 1030,9 10 0,0
25.02.2018 08:00:00 -5,0 -11,3 -6,1 21 11 32 18 ENE 1030,1 10 0,0
25.02.2018 07:00:00 -4,7 -11,4 -5,6 26 14 40 21 E 1029,7 10 0,0
25.02.2018 06:00:00 -4,4 -11,2 -5,2 28 15 43 23 ENE 1029,6 10 0,0
25.02.2018 05:00:00 -4,0 -10,7 -5,0 28 15 43 23 ENE 1029,2 10 0,0
25.02.2018 04:00:00 -3,6 -10,7 -4,5 28 15 40 21 ENE 1028,5 10 0,0
25.02.2018 03:00:00 -3,1 -10,5 -4,2 28 15 43 23 ENE 1028,5 10 0,0
25.02.2018 02:00:00 -2,7 -10,6 -3,7 29 16 43 23 ENE 1028,3 10 0,0
25.02.2018 01:00:00 -2,5 -10,1 -3,4 28 15 40 21 ENE 1028,2 10 0,0
25.02.2018 00:00:00 -2,1 -9,4 -3,0 29 16 40 21 ENE 1028,3 10 0,0
24.02.2018 23:00:00 -1,3 -9,2 -2,5 29 16 40 21 ENE 1027,9 10 0,0
24.02.2018 22:00:00 -1,4 -8,7 -2,3 28 15 43 23 ENE 1027,7 10 0,0
24.02.2018 21:00:00 -1,3 -7,9 -2,4 26 14 40 21 ENE 1027,4 10 0,0
24.02.2018 20:00:00 -1,1 -6,9 -2,2 21 11 32 18 ENE 1027,1 10 0,0
24.02.2018 19:00:00 -0,9 -7,2 -1,9 24 13 47 25 ENE 1026,9 10 0,0
24.02.2018 18:00:00 0,6 -7,0 -0,2 39 21 54 29 ENE 1026,4 10 0,0
24.02.2018 17:00:00 1,9 -5,3 1,8 41 22 50 27 ENE 1025,8 10 0,0
24.02.2018 16:00:00 2,5 -5,9 2,4 31 17 47 25 ENE 1025,8 10 0,0
24.02.2018 15:00:00 2,5 -7,1 3,2 37 20 50 27 ENE 1025,8 10 0,0
24.02.2018 14:00:00 3,3 -7,4 4,5 37 20 50 27 ENE 1025,7 10 0,0
24.02.2018 13:00:00 3,1 -8,2 4,0 37 20 47 25 E 1025,8 10 0,0
24.02.2018 12:00:00 1,2 -10,3 2,0 35 19 50 27 ENE 1026,1 10 0,0
24.02.2018 11:00:00 1,3 -10,2 2,1 31 17 47 25 E 1025,8 10 0,0
24.02.2018 10:00:00 -0,2 -11,1 0,3 29 16 43 23 E 1025,6 10 0,0
24.02.2018 09:00:00 -1,9 -10,9 -2,1 31 17 43 23 ENE 1025,3 10 0,0
24.02.2018 08:00:00 -3,3 -11,1 -4,7 24 13 36 19 ENE 1024,8 10 0,0
24.02.2018 07:00:00 -4,7 -10,3 -6,1 18 10 29 16 ENE 1024,4 10 0,0
24.02.2018 06:00:00 -5,1 -9,9 -6,4 18 10 25 14 ENE 1024,3 10 0,0
24.02.2018 05:00:00 -4,9 -9,6 -6,6 16 9 25 14 ENE 1023,8 10 0,0
24.02.2018 04:00:00 -4,5 -9,7 -5,7 21 11 25 14 ENE 1023,5 10 0,0
24.02.2018 03:00:00 -3,5 -9,6 -4,6 24 13 32 18 ENE 1023,3 10 0,0
24.02.2018 02:00:00 -3,2 -9,1 -4,5 24 13 32 18 ENE 1023,0 10 0,0
24.02.2018 01:00:00 -2,9 -8,2 -4,1 22 12 32 18 ENE 1023,1 10 0,0
24.02.2018 00:00:00 -2,5 -7,4 -3,7 26 14 40 21 ENE 1022,8 10 0,0
23.02.2018 23:00:00 -2,3 -6,8 -3,7 22 12 32 18 ENE 1022,6 10 0,0
23.02.2018 22:00:00 -2,0 -6,9 -3,3 21 11 29 16 ENE 1022,6 10 0,0
23.02.2018 21:00:00 -1,5 -6,7 -2,6 22 12 36 19 ENE 1022,5 10 0,0
23.02.2018 20:00:00 -0,9 -6,9 -2,0 26 14 36 19 ENE 1022,2 10 0,0
23.02.2018 19:00:00 0,2 -6,8 -1,4 22 12 32 18 ENE 1021,7 10 0,0
23.02.2018 18:00:00 0,7 -6,7 -0,4 29 16 47 25 ENE 1021,2 10 0,0
23.02.2018 17:00:00 2,2 -6,7 1,8 29 16 40 21 ENE 1021,4 10 0,0
23.02.2018 16:00:00 3,3 -6,2 3,6 26 14 43 23 ENE 1021,8 10 0,0
23.02.2018 15:00:00 3,2 -6,5 4,1 28 15 43 23 ENE 1022,1 10 0,0
23.02.2018 14:00:00 2,9 -6,8 4,2 31 17 43 23 ENE 1022,6 10 0,0
23.02.2018 13:00:00 2,0 -7,0 3,7 29 16 43 23 ENE 1023,1 10 0,0
23.02.2018 12:00:00 0,7 -6,1 1,1 29 16 43 23 ENE 1023,4 10 0,0
23.02.2018 11:00:00 0,7 -4,5 1,2 29 16 40 21 ENE 1023,8 10 0,0
23.02.2018 10:00:00 -0,4 -3,6 -0,8 18 10 32 18 ENE 1024,0 9 0,0
23.02.2018 09:00:00 -0,8 -2,6 -1,4 16 9 22 12 NE 1023,8 5 0,0
23.02.2018 08:00:00 -1,9 -3,3 -2,9 13 7 22 12 NE 1023,4 4,0 0,0
23.02.2018 07:00:00 -1,9 -3,4 -2,8 9 5 18 10 NNE 1023,2 4,5 0,0
23.02.2018 06:00:00 -1,8 -3,3 -2,6 13 7 18 10 NE 1023,2 5 0,0
23.02.2018 05:00:00 -2,4 -4,0 -3,6 13 7 22 12 NE 1023,0 5 0,0
23.02.2018 04:00:00 -2,4 -4,2 -3,7 13 7 22 12 NE 1023,2 6 0,0
23.02.2018 03:00:00 -2,4 -4,2 -3,4 11 6 22 12 NE 1023,5 7 0,0
23.02.2018 02:00:00 -2,0 -3,9 -3,0 13 7 18 10 NNE 1023,7 7 0,0
23.02.2018 01:00:00 -1,8 -3,8 -3,5 13 7 22 12 NE 1023,9 7 0,0
23.02.2018 00:00:00 -2,2 -4,1 -3,5 15 8 22 12 ENE 1023,9 7 0,0
22.02.2018 23:00:00 -1,2 -4,2 -2,4 13 7 18 10 NE 1024,3 10 0,0
22.02.2018 22:00:00 -1,1 -5,1 -3,1 13 7 25 14 NE 1024,0 10 0,0
22.02.2018 21:00:00 -0,6 -5,2 -2,0 18 10 32 18 ENE 1023,9 10 0,0
22.02.2018 20:00:00 0,5 -5,2 -0,7 24 13 32 18 ENE 1023,9 10 0,0
22.02.2018 19:00:00 1,5 -5,2 0,2 22 12 36 19 NE 1023,6 10 0,0
22.02.2018 18:00:00 2,2 -5,1 1,2 22 12 32 18 NE 1023,3 10 0,0
22.02.2018 17:00:00 3,3 -5,0 2,7 24 13 36 19 NE 1023,2 10 0,0
22.02.2018 16:00:00 4,1 -4,8 4,4 24 13 36 19 NE 1023,2 10 0,0
22.02.2018 15:00:00 4,5 -4,3 5,2 26 14 40 21 NE 1023,6 10 0,0
22.02.2018 14:00:00 4,6 -4,5 5,9 24 13 36 19 NE 1024,2 10 0,0
22.02.2018 13:00:00 4,3 -4,2 5,9 26 14 36 19 ENE 1024,8 10 0,0
22.02.2018 12:00:00 3,5 -3,5 4,9 24 13 36 19 ENE 1025,3 10 0,0
22.02.2018 11:00:00 2,2 -4,3 3,0 28 15 36 19 ENE 1025,4 10 0,0
22.02.2018 10:00:00 0,4 -4,4 1,0 15 8 25 14 NE 1025,5 10 0,0
22.02.2018 09:00:00 -0,8 -5,0 -1,4 15 8 22 12 NE 1025,4 10 0,0
22.02.2018 08:00:00 -2,9 -5,6 -5,0 11 6 18 10 ENE 1025,2 10 0,0
22.02.2018 07:00:00 -3,3 -6,0 -4,9 11 6 18 10 NE 1025,0 10 0,0
22.02.2018 06:00:00 -2,8 -5,8 -4,2 11 6 22 12 NE 1024,8 10 0,0
22.02.2018 05:00:00 -2,5 -5,8 -3,8 15 8 22 12 NE 1024,5 10 0,0
22.02.2018 04:00:00 -2,2 -5,6 -3,3 15 8 22 12 NE 1024,4 10 0,0
22.02.2018 03:00:00 -1,9 -5,4 -3,3 13 7 22 12 NE 1024,8 10 0,0
22.02.2018 02:00:00 -1,9 -5,3 -3,2 15 8 22 12 NE 1025,0 10 0,0
22.02.2018 01:00:00 -1,3 -5,0 -2,5 15 8 22 12 NE 1025,3 10 0,0
22.02.2018 00:00:00 -0,8 -4,7 -2,2 15 8 22 12 NE 1025,3 10 0,0
21.02.2018 23:00:00 -0,8 -4,5 -1,9 15 8 22 12 NE 1025,5 10 0,0
21.02.2018 22:00:00 -0,2 -4,4 -1,7 15 8 22 12 NE 1025,4 10 0,0
21.02.2018 21:00:00 -0,1 -4,2 -1,6 11 6 18 10 NNE 1025,5 10 0,0
21.02.2018 20:00:00 -0,2 -4,3 -1,9 8 4 14 8 NNE 1025,2 10 0,0
21.02.2018 19:00:00 0,5 -4,2 -1,8 8 4 11 6 NNE 1025,2 10 0,0
21.02.2018 18:00:00 1,5 -3,9 -0,2 8 4 22 12 NNE 1024,6 10 0,0
21.02.2018 17:00:00 3,4 -3,5 2,7 16 9 25 14 NE 1024,4 10 0,0
21.02.2018 16:00:00 4,2 -3,6 4,5 15 8 25 14 NE 1024,6 10 0,0
21.02.2018 15:00:00 4,1 -3,8 4,9 13 7 22 12 NE 1025,1 10 0,0
21.02.2018 14:00:00 4,8 -2,5 6,1 13 7 22 12 NE 1025,7 10 0,0
21.02.2018 13:00:00 3,8 -3,4 5,4 11 6 22 12 NE 1026,2 10 0,0
21.02.2018 12:00:00 3,2 -2,6 4,2 13 7 22 12 NNE 1026,5 9 0,0
21.02.2018 11:00:00 1,8 -2,4 2,5 11 6 18 10 NNE 1026,4 6 0,0
21.02.2018 10:00:00 -0,2 -2,9 -0,2 8 4 11 6 NNE 1026,3 5 0,0
21.02.2018 09:00:00 -2,3 -3,9 -3,4 4 2 11 6 NE 1026,1 3,4 0,0
21.02.2018 08:00:00 -3,5 -4,7 -6,0 8 4 11 6 N 1025,9 3,7 0,0
21.02.2018 07:00:00 -3,0 -4,4 -4,6 9 5 14 8 NNE 1025,8 4,3 0,0
21.02.2018 06:00:00 -2,8 -4,7 -4,8 8 4 14 8 NNE 1025,5 4,9 0,0
21.02.2018 05:00:00 -2,6 -4,6 -4,5 9 5 14 8 NE 1025,0 5 0,0
21.02.2018 04:00:00 -1,9 -4,1 -3,4 9 5 11 6 NNE 1025,1 6 0,0
21.02.2018 03:00:00 -1,9 -4,2 -3,3 8 4 11 6 NNE 1024,8 6 0,0
21.02.2018 02:00:00 -1,6 -4,0 -4,1 8 4 14 8 N 1024,3 6 0,0
21.02.2018 01:00:00 -1,0 -3,6 -2,6 8 4 14 8 N 1024,1 7 0,0
21.02.2018 00:00:00 -0,7 -3,3 -2,1 9 5 14 8 N 1023,7 7 0,0
20.02.2018 23:00:00 -0,6 -3,1 -2,2 9 5 14 8 NNE 1023,0 7 0,0
20.02.2018 22:00:00 0,0 -2,7 -1,3 9 5 18 10 NNE 1022,6 8 0,0
20.02.2018 21:00:00 0,7 -2,6 -1,3 9 5 14 8 N 1022,1 9 0,0
20.02.2018 20:00:00 1,2 -2,8 -1,1 8 4 18 10 NE 1021,5 10 0,0
20.02.2018 19:00:00 2,8 -2,1 1,0 13 7 22 12 NE 1020,8 10 0,0
20.02.2018 18:00:00 3,6 -1,7 2,5 9 5 18 10 NE 1020,0 10 0,0
20.02.2018 17:00:00 4,6 -1,5 4,1 11 6 18 10 NE 1019,3 10 0,0
20.02.2018 16:00:00 5,1 -1,8 5,1 13 7 18 10 NE 1018,9 10 0,0
20.02.2018 15:00:00 5,5 -1,2 6,1 11 6 18 10 NE 1018,7 10 0,0
20.02.2018 14:00:00 4,9 -1,5 5,7 8 4 18 10 N 1019,4 10 0,0
20.02.2018 13:00:00 4,5 -2,0 5,9 15 8 22 12 E 1019,1 10 0,0
20.02.2018 12:00:00 3,8 -2,1 6,4 13 7 22 12 ENE 1019,2 10 0,0
20.02.2018 11:00:00 2,5 -1,6 3,0 11 6 14 8 ENE 1019,2 9 0,0
20.02.2018 10:00:00 0,9 -1,9 1,3 5 3 11 6 NNE 1019,4 7 0,0
20.02.2018 09:00:00 -0,5 -2,1 -1,2 9 5 14 8 E 1018,7 5 0,0
20.02.2018 08:00:00 -1,9 -3,2 -2,9 5 3 11 6 NE 1018,7 4,0 0,0
20.02.2018 07:00:00 -2,4 -3,2 -4,6 5 3 11 6 N 1018,6 4,2 0,0
20.02.2018 06:00:00 -3,9 -4,2 -8,2 5 3 7 4 N 1018,5 4,4 0,0
20.02.2018 05:00:00 -3,3 -4,0 -7,6 4 2 11 6 N 1018,4 3,4 0,0
20.02.2018 04:00:00 -3,3 -3,9 -6,7 4 2 7 4 NNW 1018,4 5 0,0
20.02.2018 03:00:00 -3,0 -3,8 -6,8 4 2 7 4 N 1018,1 5 0,0
20.02.2018 02:00:00 -1,7 -3,0 -5,5 4 2 7 4 NNE 1017,9 7 0,0
20.02.2018 01:00:00 -0,2 -1,8 -2,9 5 3 7 4 E 1017,9 7 0,0
20.02.2018 00:00:00 0,7 -1,1 -0,2 8 4 7 4 ENE 1018,1 8 0,0
19.02.2018 23:00:00 1,4 -1,2 0,5 5 3 11 6 NE 1018,0 9 0,0
19.02.2018 22:00:00 0,9 -1,2 0,1 5 3 7 4 ENE 1018,2 8 0,0
19.02.2018 21:00:00 1,2 -0,8 0,5 5 3 7 4 E 1018,3 9 0,0
19.02.2018 20:00:00 2,4 -1,3 1,4 8 4 7 4 SSE 1018,1 10 0,0
19.02.2018 19:00:00 2,4 -1,0 1,6 5 3 11 6 ESE 1018,2 10 0,0
19.02.2018 18:00:00 2,9 -1,0 2,3 8 4 11 6 ESE 1018,1 10 0,0
19.02.2018 17:00:00 3,5 -1,2 3,4 5 3 14 8 SE 1018,2 10 0,0
19.02.2018 16:00:00 3,4 -1,0 3,9 8 4 14 8 SSE 1018,5 10 0,0
19.02.2018 15:00:00 3,2 -1,1 4,5 8 4 14 8 SSE 1018,8 10 0,0
19.02.2018 14:00:00 2,8 -1,5 4,1 11 6 14 8 SE 1019,1 11 0,0
19.02.2018 13:00:00 2,2 -1,5 3,2 9 5 14 8 SE 1019,6 10 0,0
19.02.2018 12:00:00 1,5 -1,7 2,2 9 5 18 10 SSE 1020,0 9 0,0
19.02.2018 11:00:00 0,9 -1,8 1,3 9 5 14 8 S 1020,2 9 0,0
19.02.2018 10:00:00 0,3 -1,8 0,1 9 5 14 8 SSE 1020,5 8 0,0

tt = Température de l'air
td = dewpoint
tt 5cm = Température de l'air 5cm
ff = Vitesse du vent
fx = gusts
dd = Direction du vent
ppp = reduced air pressure
vv = visibility
rr = Quantités de précipitations

stations d'obs. à proximité